Location: Willingham
(52.3167°N, 0.0667°E)
Time: 05:00:03
(UTC+00:00)

Cosmos 1821 Rocket - Pass Details

Date: 19 May 2025
Orbit: 943 x 1004 km, 82.9° (Epoch: 13 June)

Event Time Altitude Azimuth Distance (km) Brightness Sun altitude
Rises 22:11:51 0° 348° (NNW) 3,645 8.7 -14.2°
Reaches altitude 10° 22:14:23 10° 346° (NNW) 2,689 7.7 -14.4°
Maximum altitude 22:20:27 67° 265° (W) 1,022 4.2 -14.8°
Enters shadow 22:25:07 17° 186° (S) 2,165 5.3 -15.0°
